Year,Month,Day,Hour,Minute,Value (Times are PST for temperature in C)
2018,07,05,00,00,18.90
2018,07,05,00,01,18.90
2018,07,05,00,02,18.90
2018,07,05,00,03,18.80
2018,07,05,00,04,18.80
2018,07,05,00,05,18.80
2018,07,05,00,06,18.80
2018,07,05,00,07,18.80
2018,07,05,00,08,18.80
2018,07,05,00,09,18.80
2018,07,05,00,10,18.80
2018,07,05,00,11,18.70
2018,07,05,00,12,18.70
2018,07,05,00,13,18.70
2018,07,05,00,14,18.70
2018,07,05,00,15,18.70
2018,07,05,00,16,18.70
2018,07,05,00,17,18.60
2018,07,05,00,18,18.60
2018,07,05,00,19,18.60
2018,07,05,00,20,18.60
2018,07,05,00,21,18.60
2018,07,05,00,22,18.50
2018,07,05,00,23,18.50
2018,07,05,00,24,18.50
2018,07,05,00,25,18.50
2018,07,05,00,26,18.40
2018,07,05,00,27,18.40
2018,07,05,00,28,18.40
2018,07,05,00,29,18.40
2018,07,05,00,30,18.40
2018,07,05,00,31,18.40
2018,07,05,00,32,18.30
2018,07,05,00,33,18.30
2018,07,05,00,34,18.30
2018,07,05,00,35,18.30
2018,07,05,00,36,18.30
2018,07,05,00,37,18.30
2018,07,05,00,38,18.20
2018,07,05,00,39,18.20
2018,07,05,00,40,18.20
2018,07,05,00,41,18.20
2018,07,05,00,42,18.20
2018,07,05,00,43,18.20
2018,07,05,00,44,18.10
2018,07,05,00,45,18.10
2018,07,05,00,46,18.10
2018,07,05,00,47,18.10
2018,07,05,00,48,18.10
2018,07,05,00,49,18.10
2018,07,05,00,50,18.10
2018,07,05,00,51,18.00
2018,07,05,00,52,18.00
2018,07,05,00,53,18.00
2018,07,05,00,54,18.00
2018,07,05,00,55,17.90
2018,07,05,00,56,17.90
2018,07,05,00,57,17.90
2018,07,05,00,58,17.90
2018,07,05,00,59,17.90
2018,07,05,01,00,17.90
2018,07,05,01,01,17.80
2018,07,05,01,02,17.80
2018,07,05,01,03,17.80
2018,07,05,01,04,17.80
2018,07,05,01,05,17.80
2018,07,05,01,06,17.80
2018,07,05,01,07,17.70
2018,07,05,01,08,17.70
2018,07,05,01,09,17.70
2018,07,05,01,10,17.70
2018,07,05,01,11,17.70
2018,07,05,01,12,17.70
2018,07,05,01,13,17.60
2018,07,05,01,14,17.60
2018,07,05,01,15,17.60
2018,07,05,01,16,17.60
2018,07,05,01,17,17.60
2018,07,05,01,18,17.60
2018,07,05,01,19,17.60
2018,07,05,01,20,17.60
2018,07,05,01,21,17.60
2018,07,05,01,22,17.50
2018,07,05,01,23,17.50
2018,07,05,01,24,17.50
2018,07,05,01,25,17.50
2018,07,05,01,26,17.50
2018,07,05,01,27,17.50
2018,07,05,01,28,17.50
2018,07,05,01,29,17.50
2018,07,05,01,30,17.50
2018,07,05,01,31,17.40
2018,07,05,01,32,17.40
2018,07,05,01,33,17.40
2018,07,05,01,34,17.40
2018,07,05,01,35,17.40
2018,07,05,01,36,17.40
2018,07,05,01,37,17.40
2018,07,05,01,38,17.40
2018,07,05,01,39,17.40
2018,07,05,01,40,17.30
2018,07,05,01,41,17.30
2018,07,05,01,42,17.30
2018,07,05,01,43,17.30
2018,07,05,01,44,17.30
2018,07,05,01,45,17.30
2018,07,05,01,46,17.30
2018,07,05,01,47,17.30
2018,07,05,01,48,17.30
2018,07,05,01,49,17.30
2018,07,05,01,50,17.20
2018,07,05,01,51,17.20
2018,07,05,01,52,17.20
2018,07,05,01,53,17.20
2018,07,05,01,54,17.20
2018,07,05,01,55,17.20
2018,07,05,01,56,17.20
2018,07,05,01,57,17.20
2018,07,05,01,58,17.20
2018,07,05,01,59,17.20
2018,07,05,02,00,17.10
2018,07,05,02,01,17.10
2018,07,05,02,02,17.10
2018,07,05,02,03,17.10
2018,07,05,02,04,17.10
2018,07,05,02,05,17.10
2018,07,05,02,06,17.10
2018,07,05,02,07,17.10
2018,07,05,02,08,17.10
2018,07,05,02,09,17.10
2018,07,05,02,10,17.10
2018,07,05,02,11,17.10
2018,07,05,02,12,17.00
2018,07,05,02,13,17.00
2018,07,05,02,14,17.00
2018,07,05,02,15,17.00
2018,07,05,02,16,17.00
2018,07,05,02,17,17.00
2018,07,05,02,18,17.00
2018,07,05,02,19,17.00
2018,07,05,02,20,17.00
2018,07,05,02,21,16.90
2018,07,05,02,22,16.90
2018,07,05,02,23,16.90
2018,07,05,02,24,16.90
2018,07,05,02,25,16.90
2018,07,05,02,26,16.90
2018,07,05,02,27,16.90
2018,07,05,02,28,16.90
2018,07,05,02,29,16.80
2018,07,05,02,30,16.80
2018,07,05,02,31,16.80
2018,07,05,02,32,16.80
2018,07,05,02,33,16.80
2018,07,05,02,34,16.80
2018,07,05,02,35,16.80
2018,07,05,02,36,16.80
2018,07,05,02,37,16.80
2018,07,05,02,38,16.80
2018,07,05,02,39,16.80
2018,07,05,02,40,16.80
2018,07,05,02,41,16.80
2018,07,05,02,42,16.80
2018,07,05,02,43,16.80
2018,07,05,02,44,16.80
2018,07,05,02,45,16.80
2018,07,05,02,46,16.80
2018,07,05,02,47,16.80
2018,07,05,02,48,16.80
2018,07,05,02,49,16.80
2018,07,05,02,50,16.80
2018,07,05,02,51,16.80
2018,07,05,02,52,16.80
2018,07,05,02,53,16.80
2018,07,05,02,54,16.80
2018,07,05,02,55,16.80
2018,07,05,02,56,16.80
2018,07,05,02,57,16.80
2018,07,05,02,58,16.80
2018,07,05,02,59,16.80
2018,07,05,03,00,16.80
2018,07,05,03,01,16.80
2018,07,05,03,02,16.80
2018,07,05,03,03,16.80
2018,07,05,03,04,16.80
2018,07,05,03,05,16.80
2018,07,05,03,06,16.80
2018,07,05,03,07,16.80
2018,07,05,03,08,16.90
2018,07,05,03,09,16.90
2018,07,05,03,10,16.90
2018,07,05,03,11,16.90
2018,07,05,03,12,16.90
2018,07,05,03,13,16.90
2018,07,05,03,14,16.90
2018,07,05,03,15,16.90
2018,07,05,03,16,16.90
2018,07,05,03,17,16.90
2018,07,05,03,18,16.90
2018,07,05,03,19,16.90
2018,07,05,03,20,16.90
2018,07,05,03,21,16.90
2018,07,05,03,22,16.90
2018,07,05,03,23,16.90
2018,07,05,03,24,16.90
2018,07,05,03,25,16.90
2018,07,05,03,26,16.90
2018,07,05,03,27,16.90
2018,07,05,03,28,16.90
2018,07,05,03,29,16.90
2018,07,05,03,30,16.90
2018,07,05,03,31,16.90
2018,07,05,03,32,16.90
2018,07,05,03,33,16.90
2018,07,05,03,34,16.90
2018,07,05,03,35,16.90
2018,07,05,03,36,16.90
2018,07,05,03,37,16.90
2018,07,05,03,38,16.90
2018,07,05,03,39,16.90
2018,07,05,03,40,16.90
2018,07,05,03,41,16.90
2018,07,05,03,42,16.90
2018,07,05,03,43,16.90
2018,07,05,03,44,16.90
2018,07,05,03,45,16.90
2018,07,05,03,46,16.90
2018,07,05,03,47,16.90
2018,07,05,03,48,16.90
2018,07,05,03,49,16.90
2018,07,05,03,50,16.90
2018,07,05,03,51,16.90
2018,07,05,03,52,16.90
2018,07,05,03,53,16.90
2018,07,05,03,54,16.90
2018,07,05,03,55,16.90
2018,07,05,03,56,16.90
2018,07,05,03,57,16.90
2018,07,05,03,58,16.90
2018,07,05,03,59,16.90
2018,07,05,04,00,16.90
2018,07,05,04,01,16.90
2018,07,05,04,02,16.90
2018,07,05,04,03,16.90
2018,07,05,04,04,16.90
2018,07,05,04,05,16.90
2018,07,05,04,06,16.90
2018,07,05,04,07,16.90
2018,07,05,04,08,16.90
2018,07,05,04,09,16.90
2018,07,05,04,10,16.90
2018,07,05,04,11,16.80
2018,07,05,04,12,16.90
2018,07,05,04,13,16.80
2018,07,05,04,14,16.80
2018,07,05,04,15,16.80
2018,07,05,04,16,16.80
2018,07,05,04,17,16.80
2018,07,05,04,18,16.80
2018,07,05,04,19,16.80
2018,07,05,04,20,16.80
2018,07,05,04,21,16.80
2018,07,05,04,22,16.80
2018,07,05,04,23,16.80
2018,07,05,04,24,16.80
2018,07,05,04,25,16.80
2018,07,05,04,26,16.80
2018,07,05,04,27,16.80
2018,07,05,04,28,16.80
2018,07,05,04,29,16.80
2018,07,05,04,30,16.80
2018,07,05,04,31,16.80
2018,07,05,04,32,16.80
2018,07,05,04,33,16.80
2018,07,05,04,34,16.80
2018,07,05,04,35,16.80
2018,07,05,04,36,16.80
2018,07,05,04,37,16.80
2018,07,05,04,38,16.80
2018,07,05,04,39,16.80
2018,07,05,04,40,16.80
2018,07,05,04,41,16.80
2018,07,05,04,42,16.80
2018,07,05,04,43,16.80
2018,07,05,04,44,16.80
2018,07,05,04,45,16.80
2018,07,05,04,46,16.80
2018,07,05,04,47,16.80
2018,07,05,04,48,16.80
2018,07,05,04,49,16.80
2018,07,05,04,50,16.80
2018,07,05,04,51,16.80
2018,07,05,04,52,16.80
2018,07,05,04,53,16.80
2018,07,05,04,54,16.80
2018,07,05,04,55,16.80
2018,07,05,04,56,16.80
2018,07,05,04,57,16.80
2018,07,05,04,58,16.80
2018,07,05,04,59,16.80
2018,07,05,05,00,16.80
2018,07,05,05,01,16.80
2018,07,05,05,02,16.80
2018,07,05,05,03,16.80
2018,07,05,05,04,16.80
2018,07,05,05,05,16.80
2018,07,05,05,06,16.80
2018,07,05,05,07,16.80
2018,07,05,05,08,16.80
2018,07,05,05,09,16.80
2018,07,05,05,10,16.80
2018,07,05,05,11,16.80
2018,07,05,05,12,16.80
2018,07,05,05,13,16.80
2018,07,05,05,14,16.80
2018,07,05,05,15,16.80
2018,07,05,05,16,16.80
2018,07,05,05,17,16.80
2018,07,05,05,18,16.80
2018,07,05,05,19,16.80
2018,07,05,05,20,16.80
2018,07,05,05,21,16.90
2018,07,05,05,22,16.90
2018,07,05,05,23,16.90
2018,07,05,05,24,16.90
2018,07,05,05,25,16.90
2018,07,05,05,26,16.90
2018,07,05,05,27,16.90
2018,07,05,05,28,16.90
2018,07,05,05,29,16.90
2018,07,05,05,30,16.90
2018,07,05,05,31,16.90
2018,07,05,05,32,16.90
2018,07,05,05,33,16.90
2018,07,05,05,34,16.90
2018,07,05,05,35,16.90
2018,07,05,05,36,16.90
2018,07,05,05,37,16.90
2018,07,05,05,38,16.90
2018,07,05,05,39,16.90
2018,07,05,05,40,16.90
2018,07,05,05,41,16.90
2018,07,05,05,42,16.90
2018,07,05,05,43,16.90
2018,07,05,05,44,16.90
2018,07,05,05,45,16.90
2018,07,05,05,46,16.90
2018,07,05,05,47,16.90
2018,07,05,05,48,16.90
2018,07,05,05,49,16.90
2018,07,05,05,50,16.90
2018,07,05,05,51,17.00
2018,07,05,05,52,17.00
2018,07,05,05,53,17.00
2018,07,05,05,54,17.00
2018,07,05,05,55,17.00
2018,07,05,05,56,17.00
2018,07,05,05,57,17.00
2018,07,05,05,58,17.00
2018,07,05,05,59,17.00
2018,07,05,06,00,17.00
2018,07,05,06,01,17.00
2018,07,05,06,02,17.00
2018,07,05,06,03,17.00
2018,07,05,06,04,17.00
2018,07,05,06,05,17.00
2018,07,05,06,06,17.00
2018,07,05,06,07,17.00
2018,07,05,06,08,17.00
2018,07,05,06,09,17.00
2018,07,05,06,10,17.00
2018,07,05,06,11,17.10
2018,07,05,06,12,17.10
2018,07,05,06,13,17.10
2018,07,05,06,14,17.10
2018,07,05,06,15,17.10
2018,07,05,06,16,17.10
2018,07,05,06,17,17.10
2018,07,05,06,18,17.20
2018,07,05,06,19,17.20
2018,07,05,06,20,17.20
2018,07,05,06,21,17.20
2018,07,05,06,22,17.20
2018,07,05,06,23,17.20
2018,07,05,06,24,17.20
2018,07,05,06,25,17.20
2018,07,05,06,26,17.20
2018,07,05,06,27,17.20
2018,07,05,06,28,17.20
2018,07,05,06,29,17.20
2018,07,05,06,30,17.20
2018,07,05,06,31,17.30
2018,07,05,06,32,17.30
2018,07,05,06,33,17.30
2018,07,05,06,34,17.30
2018,07,05,06,35,17.30
2018,07,05,06,36,17.30
2018,07,05,06,37,17.30
2018,07,05,06,38,17.30
2018,07,05,06,39,17.30
2018,07,05,06,40,17.30
2018,07,05,06,41,17.30
2018,07,05,06,42,17.30
2018,07,05,06,43,17.30
2018,07,05,06,44,17.30
2018,07,05,06,45,17.30
2018,07,05,06,46,17.40
2018,07,05,06,47,17.40
2018,07,05,06,48,17.40
2018,07,05,06,49,17.40
2018,07,05,06,50,17.40
2018,07,05,06,51,17.40
2018,07,05,06,52,17.40
2018,07,05,06,53,17.40
2018,07,05,06,54,17.40
2018,07,05,06,55,17.40
2018,07,05,06,56,17.40
2018,07,05,06,57,17.40
2018,07,05,06,58,17.40
2018,07,05,06,59,17.50
2018,07,05,07,00,17.50
2018,07,05,07,01,17.50
2018,07,05,07,02,17.60
2018,07,05,07,03,17.60
2018,07,05,07,04,17.60
2018,07,05,07,05,17.60
2018,07,05,07,06,17.70
2018,07,05,07,07,17.70
2018,07,05,07,08,17.70
2018,07,05,07,09,17.70
2018,07,05,07,10,17.70
2018,07,05,07,11,17.70
2018,07,05,07,12,17.80
2018,07,05,07,13,17.80
2018,07,05,07,14,17.80
2018,07,05,07,15,17.80
2018,07,05,07,16,17.80
2018,07,05,07,17,17.80
2018,07,05,07,18,17.80
2018,07,05,07,19,17.80
2018,07,05,07,20,17.80
2018,07,05,07,21,17.90
2018,07,05,07,22,17.90
2018,07,05,07,23,17.90
2018,07,05,07,24,17.90
2018,07,05,07,25,17.90
2018,07,05,07,26,17.90
2018,07,05,07,27,17.90
2018,07,05,07,28,17.90
2018,07,05,07,29,17.90
2018,07,05,07,30,17.90
2018,07,05,07,31,17.90
2018,07,05,07,32,17.90
2018,07,05,07,33,17.90
2018,07,05,07,34,17.90
2018,07,05,07,35,17.90
2018,07,05,07,36,17.90
2018,07,05,07,37,17.90
2018,07,05,07,38,17.90
2018,07,05,07,39,17.90
2018,07,05,07,40,17.90
2018,07,05,07,41,17.90
2018,07,05,07,42,17.90
2018,07,05,07,43,17.90
2018,07,05,07,44,17.90
2018,07,05,07,45,17.90
2018,07,05,07,46,17.90
2018,07,05,07,47,17.90
2018,07,05,07,48,17.90
2018,07,05,07,49,17.90
2018,07,05,07,50,17.90
2018,07,05,07,51,17.80
2018,07,05,07,52,17.80
2018,07,05,07,53,17.80
2018,07,05,07,54,17.80
2018,07,05,07,55,17.80
2018,07,05,07,56,17.80
2018,07,05,07,57,17.80
2018,07,05,07,58,17.80
2018,07,05,07,59,17.80
2018,07,05,08,00,17.80
2018,07,05,08,01,17.80
2018,07,05,08,02,17.80
2018,07,05,08,03,17.80
2018,07,05,08,04,17.80
2018,07,05,08,05,17.90
2018,07,05,08,06,17.90
2018,07,05,08,07,17.90
2018,07,05,08,08,17.90
2018,07,05,08,09,18.00
2018,07,05,08,10,18.00
2018,07,05,08,11,18.00
2018,07,05,08,12,18.00
2018,07,05,08,13,18.10
2018,07,05,08,14,18.10
2018,07,05,08,15,18.10
2018,07,05,08,16,18.10
2018,07,05,08,17,18.10
2018,07,05,08,18,18.10
2018,07,05,08,19,18.10
2018,07,05,08,20,18.20
2018,07,05,08,21,18.20
2018,07,05,08,22,18.20
2018,07,05,08,23,18.30
2018,07,05,08,24,18.30
2018,07,05,08,25,18.30
2018,07,05,08,26,18.30
2018,07,05,08,27,18.40
2018,07,05,08,28,18.40
2018,07,05,08,29,18.40
2018,07,05,08,30,18.40
2018,07,05,08,31,18.50
2018,07,05,08,32,18.50
2018,07,05,08,33,18.60
2018,07,05,08,34,18.60
2018,07,05,08,35,18.60
2018,07,05,08,36,18.60
2018,07,05,08,37,18.70
2018,07,05,08,38,18.70
2018,07,05,08,39,18.80
2018,07,05,08,40,18.80
2018,07,05,08,41,18.90
2018,07,05,08,42,18.90
2018,07,05,08,43,19.00
2018,07,05,08,44,19.00
2018,07,05,08,45,19.10
2018,07,05,08,46,19.10
2018,07,05,08,47,19.20
2018,07,05,08,48,19.20
2018,07,05,08,49,19.30
2018,07,05,08,50,19.30
2018,07,05,08,51,19.40
2018,07,05,08,52,19.40
2018,07,05,08,53,19.40
2018,07,05,08,54,19.50
2018,07,05,08,55,19.50
2018,07,05,08,56,19.60
2018,07,05,08,57,19.60
2018,07,05,08,58,19.60
2018,07,05,08,59,19.70
2018,07,05,09,00,19.70
2018,07,05,09,01,19.70
2018,07,05,09,02,19.70
2018,07,05,09,03,19.70
2018,07,05,09,04,19.70
2018,07,05,09,05,19.70
2018,07,05,09,06,19.70
2018,07,05,09,07,19.60
2018,07,05,09,08,19.60
2018,07,05,09,09,19.60
2018,07,05,09,10,19.60
2018,07,05,09,11,19.50
2018,07,05,09,12,19.50
2018,07,05,09,13,19.50
2018,07,05,09,14,19.40
2018,07,05,09,15,19.40
2018,07,05,09,16,19.40
2018,07,05,09,17,19.40
2018,07,05,09,18,19.30
2018,07,05,09,19,19.30
2018,07,05,09,20,19.30
2018,07,05,09,21,19.30
2018,07,05,09,22,19.30
2018,07,05,09,23,19.30
2018,07,05,09,24,19.30
2018,07,05,09,25,19.30
2018,07,05,09,26,19.30
2018,07,05,09,27,19.30
2018,07,05,09,28,19.40
2018,07,05,09,29,19.40
2018,07,05,09,30,19.40
2018,07,05,09,31,19.40
2018,07,05,09,32,19.40
2018,07,05,09,33,19.40
2018,07,05,09,34,19.40
2018,07,05,09,35,19.40
2018,07,05,09,36,19.40
2018,07,05,09,37,19.50
2018,07,05,09,38,19.50
2018,07,05,09,39,19.50
2018,07,05,09,40,19.60
2018,07,05,09,41,19.60
2018,07,05,09,42,19.60
2018,07,05,09,43,19.60
2018,07,05,09,44,19.70
2018,07,05,09,45,19.70
2018,07,05,09,46,19.70
2018,07,05,09,47,19.80
2018,07,05,09,48,19.80
2018,07,05,09,49,19.80
2018,07,05,09,50,19.90
2018,07,05,09,51,19.90
2018,07,05,09,52,19.90
2018,07,05,09,53,19.90
2018,07,05,09,54,19.90
2018,07,05,09,55,20.00
2018,07,05,09,56,20.00
2018,07,05,09,57,20.00
2018,07,05,09,58,20.10
2018,07,05,09,59,20.10
2018,07,05,10,00,20.10
2018,07,05,10,01,20.00
2018,07,05,10,02,20.00
2018,07,05,10,03,20.00
2018,07,05,10,04,20.00
2018,07,05,10,05,20.00
2018,07,05,10,06,20.10
2018,07,05,10,07,20.10
2018,07,05,10,08,20.10
2018,07,05,10,09,20.10
2018,07,05,10,10,20.10
2018,07,05,10,11,20.10
2018,07,05,10,12,20.10
2018,07,05,10,13,20.20
2018,07,05,10,14,20.20
2018,07,05,10,15,20.20
2018,07,05,10,16,20.20
2018,07,05,10,17,20.20
2018,07,05,10,18,20.30
2018,07,05,10,19,20.30
2018,07,05,10,20,20.30
2018,07,05,10,21,20.30
2018,07,05,10,22,20.40
2018,07,05,10,23,20.40
2018,07,05,10,24,20.40
2018,07,05,10,25,20.40
2018,07,05,10,26,20.40
2018,07,05,10,27,20.50
2018,07,05,10,28,20.50
2018,07,05,10,29,20.60
2018,07,05,10,30,20.60
2018,07,05,10,31,20.60
2018,07,05,10,32,20.60
2018,07,05,10,33,20.70
2018,07,05,10,34,20.70
2018,07,05,10,35,20.70
2018,07,05,10,36,20.80
2018,07,05,10,37,20.80
2018,07,05,10,38,20.80
2018,07,05,10,39,20.80
2018,07,05,10,40,20.80
2018,07,05,10,41,20.80
2018,07,05,10,42,20.80
2018,07,05,10,43,20.80
2018,07,05,10,44,20.70
2018,07,05,10,45,20.70
2018,07,05,10,46,20.60
2018,07,05,10,47,20.60
2018,07,05,10,48,20.60
2018,07,05,10,49,20.60
2018,07,05,10,50,20.50
2018,07,05,10,51,20.50
2018,07,05,10,52,20.50
2018,07,05,10,53,20.50
2018,07,05,10,54,20.50
2018,07,05,10,55,20.50
2018,07,05,10,56,20.40
2018,07,05,10,57,20.40
2018,07,05,10,58,20.40
2018,07,05,10,59,20.40
2018,07,05,11,00,20.40
2018,07,05,11,01,20.40
2018,07,05,11,02,20.40
2018,07,05,11,03,20.40
2018,07,05,11,04,20.40
2018,07,05,11,05,20.40
2018,07,05,11,06,20.40
2018,07,05,11,07,20.40
2018,07,05,11,08,20.40
2018,07,05,11,09,20.40
2018,07,05,11,10,20.50
2018,07,05,11,11,20.50
2018,07,05,11,12,20.50
2018,07,05,11,13,20.50
2018,07,05,11,14,20.60
2018,07,05,11,15,20.60
2018,07,05,11,16,20.60
2018,07,05,11,17,20.60
2018,07,05,11,18,20.60
2018,07,05,11,19,20.60
2018,07,05,11,20,20.60
2018,07,05,11,21,20.60
2018,07,05,11,22,20.60
2018,07,05,11,23,20.60
2018,07,05,11,24,20.60
2018,07,05,11,25,20.70
2018,07,05,11,26,20.70
2018,07,05,11,27,20.70
2018,07,05,11,28,20.70
2018,07,05,11,29,20.80
2018,07,05,11,30,20.80
2018,07,05,11,31,20.80
2018,07,05,11,32,20.90
2018,07,05,11,33,20.90
2018,07,05,11,34,21.00
2018,07,05,11,35,21.00
2018,07,05,11,36,21.10
2018,07,05,11,37,21.10
2018,07,05,11,38,21.10
2018,07,05,11,39,21.20
2018,07,05,11,40,21.20
2018,07,05,11,41,21.30
2018,07,05,11,42,21.30
2018,07,05,11,43,21.30
2018,07,05,11,44,21.40
2018,07,05,11,45,21.40
2018,07,05,11,46,21.50
2018,07,05,11,47,21.50
2018,07,05,11,48,21.60
2018,07,05,11,49,21.70
2018,07,05,11,50,21.70
2018,07,05,11,51,21.70
2018,07,05,11,52,21.80
2018,07,05,11,53,21.80
2018,07,05,11,54,21.90
2018,07,05,11,55,21.90
2018,07,05,11,56,21.90
2018,07,05,11,57,22.00
2018,07,05,11,58,22.00
2018,07,05,11,59,22.10
2018,07,05,12,00,22.10
2018,07,05,12,01,22.10
2018,07,05,12,02,22.20
2018,07,05,12,03,22.20
2018,07,05,12,04,22.20
2018,07,05,12,05,22.20
2018,07,05,12,06,22.20
2018,07,05,12,07,22.20
2018,07,05,12,08,22.30
2018,07,05,12,09,22.30
2018,07,05,12,10,22.30
2018,07,05,12,11,22.30
2018,07,05,12,12,22.30
2018,07,05,12,13,22.30
2018,07,05,12,14,22.30
2018,07,05,12,15,22.30
2018,07,05,12,16,22.30
2018,07,05,12,17,22.30
2018,07,05,12,18,22.30
2018,07,05,12,19,22.30
2018,07,05,12,20,22.30
2018,07,05,12,21,22.30
2018,07,05,12,22,22.30
2018,07,05,12,23,22.30
2018,07,05,12,24,22.40
2018,07,05,12,25,22.40
2018,07,05,12,26,22.40
2018,07,05,12,27,22.30
2018,07,05,12,28,22.30
2018,07,05,12,29,22.30
2018,07,05,12,30,22.30
2018,07,05,12,31,22.30
2018,07,05,12,32,22.30
2018,07,05,12,33,22.30
2018,07,05,12,34,22.30
2018,07,05,12,35,22.30
2018,07,05,12,36,22.30
2018,07,05,12,37,22.40
2018,07,05,12,38,22.40
2018,07,05,12,39,22.50
2018,07,05,12,40,22.60
2018,07,05,12,41,22.70
2018,07,05,12,42,22.80
2018,07,05,12,43,22.90
2018,07,05,12,44,22.90
2018,07,05,12,45,22.90
2018,07,05,12,46,22.90
2018,07,05,12,47,22.90
2018,07,05,12,48,23.00
2018,07,05,12,49,23.00
2018,07,05,12,50,23.00
2018,07,05,12,51,23.00
2018,07,05,12,52,22.90
2018,07,05,12,53,22.90
2018,07,05,12,54,22.90
2018,07,05,12,55,22.90
2018,07,05,12,56,23.00
2018,07,05,12,57,23.00
2018,07,05,12,58,23.10
2018,07,05,12,59,23.20
2018,07,05,13,00,23.30
2018,07,05,13,01,23.40
2018,07,05,13,02,23.50
2018,07,05,13,03,23.50
2018,07,05,13,04,23.60
2018,07,05,13,05,23.60
2018,07,05,13,06,23.70
2018,07,05,13,07,23.80
2018,07,05,13,08,23.90
2018,07,05,13,09,23.90
2018,07,05,13,10,24.00
2018,07,05,13,11,24.10
2018,07,05,13,12,24.20
2018,07,05,13,13,24.30
2018,07,05,13,14,24.30
2018,07,05,13,15,24.30
2018,07,05,13,16,24.40
2018,07,05,13,17,24.50
2018,07,05,13,18,24.60
2018,07,05,13,19,24.60
2018,07,05,13,20,24.70
2018,07,05,13,21,24.70
2018,07,05,13,22,24.80
2018,07,05,13,23,24.80
2018,07,05,13,24,24.80
2018,07,05,13,25,24.80
2018,07,05,13,26,24.80
2018,07,05,13,27,24.80
2018,07,05,13,28,24.80
2018,07,05,13,29,24.80
2018,07,05,13,30,24.80
2018,07,05,13,31,24.80
2018,07,05,13,32,24.70
2018,07,05,13,33,24.70
2018,07,05,13,34,24.70
2018,07,05,13,35,24.60
2018,07,05,13,36,24.60
2018,07,05,13,37,24.60
2018,07,05,13,38,24.60
2018,07,05,13,39,24.60
2018,07,05,13,40,24.60
2018,07,05,13,41,24.60
2018,07,05,13,42,24.60
2018,07,05,13,43,24.60
2018,07,05,13,44,24.70
2018,07,05,13,45,24.70
2018,07,05,13,46,24.80
2018,07,05,13,47,24.80
2018,07,05,13,48,24.90
2018,07,05,13,49,24.90
2018,07,05,13,50,24.90
2018,07,05,13,51,24.90
2018,07,05,13,52,24.90
2018,07,05,13,53,24.80
2018,07,05,13,54,24.80
2018,07,05,13,55,24.80
2018,07,05,13,56,24.90
2018,07,05,13,57,24.90
2018,07,05,13,58,24.90
2018,07,05,13,59,25.00
2018,07,05,14,00,25.00
2018,07,05,14,01,25.10
2018,07,05,14,02,25.10
2018,07,05,14,03,25.10
2018,07,05,14,04,25.10
2018,07,05,14,05,25.10
2018,07,05,14,06,25.10
2018,07,05,14,07,25.00
2018,07,05,14,08,25.00
2018,07,05,14,09,24.90
2018,07,05,14,10,24.90
2018,07,05,14,11,24.90
2018,07,05,14,12,24.90
2018,07,05,14,13,24.90
2018,07,05,14,14,24.90
2018,07,05,14,15,24.90
2018,07,05,14,16,24.90
2018,07,05,14,17,25.00
2018,07,05,14,18,25.00
2018,07,05,14,19,25.10
2018,07,05,14,20,25.10
2018,07,05,14,21,25.20
2018,07,05,14,22,25.20
2018,07,05,14,23,25.20
2018,07,05,14,24,25.30
2018,07,05,14,25,25.30
2018,07,05,14,26,25.30
2018,07,05,14,27,25.40
2018,07,05,14,28,25.40
2018,07,05,14,29,25.50
2018,07,05,14,30,25.60
2018,07,05,14,31,25.60
2018,07,05,14,32,25.60
2018,07,05,14,33,25.70
2018,07,05,14,34,25.70
2018,07,05,14,35,25.70
2018,07,05,14,36,25.80
2018,07,05,14,37,25.90
2018,07,05,14,38,25.90
2018,07,05,14,39,25.90
2018,07,05,14,40,25.90
2018,07,05,14,41,25.90
2018,07,05,14,42,25.90
2018,07,05,14,43,25.90
2018,07,05,14,44,25.90
2018,07,05,14,45,25.90
2018,07,05,14,46,26.00
2018,07,05,14,47,26.10
2018,07,05,14,48,26.10
2018,07,05,14,49,26.20
2018,07,05,14,50,26.20
2018,07,05,14,51,26.30
2018,07,05,14,52,26.30
2018,07,05,14,53,26.30
2018,07,05,14,54,26.40
2018,07,05,14,55,26.40
2018,07,05,14,56,26.40
2018,07,05,14,57,26.30
2018,07,05,14,58,26.30
2018,07,05,14,59,26.30
2018,07,05,15,00,26.30
2018,07,05,15,01,26.30
2018,07,05,15,02,26.30
2018,07,05,15,03,26.30
2018,07,05,15,04,26.30
2018,07,05,15,05,26.30
2018,07,05,15,06,26.30
2018,07,05,15,07,26.30
2018,07,05,15,08,26.30
2018,07,05,15,09,26.40
2018,07,05,15,10,26.40
2018,07,05,15,11,26.50
2018,07,05,15,12,26.60
2018,07,05,15,13,26.70
2018,07,05,15,14,26.70
2018,07,05,15,15,26.80
2018,07,05,15,16,26.90
2018,07,05,15,17,26.90
2018,07,05,15,18,27.00
2018,07,05,15,19,27.00
2018,07,05,15,20,27.00
2018,07,05,15,21,27.00
2018,07,05,15,22,27.00
2018,07,05,15,23,27.00
2018,07,05,15,24,27.00
2018,07,05,15,25,27.10
2018,07,05,15,26,27.10
2018,07,05,15,27,27.10
2018,07,05,15,28,27.10
2018,07,05,15,29,27.00
2018,07,05,15,30,27.00
2018,07,05,15,31,26.90
2018,07,05,15,32,26.90
2018,07,05,15,33,26.80
2018,07,05,15,34,26.80
2018,07,05,15,35,26.80
2018,07,05,15,36,26.90
2018,07,05,15,37,26.90
2018,07,05,15,38,26.90
2018,07,05,15,39,27.00
2018,07,05,15,40,27.10
2018,07,05,15,41,27.20
2018,07,05,15,42,27.30
2018,07,05,15,43,27.30
2018,07,05,15,44,27.50
2018,07,05,15,45,27.60
2018,07,05,15,46,27.70
2018,07,05,15,47,27.80
2018,07,05,15,48,27.90
2018,07,05,15,49,28.00
2018,07,05,15,50,28.10
2018,07,05,15,51,28.10
2018,07,05,15,52,28.10
2018,07,05,15,53,28.10
2018,07,05,15,54,28.00
2018,07,05,15,55,28.00
2018,07,05,15,56,27.90
2018,07,05,15,57,27.80
2018,07,05,15,58,27.80
2018,07,05,15,59,27.80
2018,07,05,16,00,27.80
2018,07,05,16,01,27.80
2018,07,05,16,02,27.80
2018,07,05,16,03,27.80
2018,07,05,16,04,27.80
2018,07,05,16,05,27.80
2018,07,05,16,06,27.80
2018,07,05,16,07,27.80
2018,07,05,16,08,27.70
2018,07,05,16,09,27.70
2018,07,05,16,10,27.70
2018,07,05,16,11,27.70
2018,07,05,16,12,27.60
2018,07,05,16,13,27.70
2018,07,05,16,14,27.70
2018,07,05,16,15,27.70
2018,07,05,16,16,27.80
2018,07,05,16,17,27.80
2018,07,05,16,18,27.80
2018,07,05,16,19,27.90
2018,07,05,16,20,28.00
2018,07,05,16,21,28.00
2018,07,05,16,22,28.00
2018,07,05,16,23,28.00
2018,07,05,16,24,28.00
2018,07,05,16,25,28.00
2018,07,05,16,26,27.90
2018,07,05,16,27,27.80
2018,07,05,16,28,27.70
2018,07,05,16,29,27.60
2018,07,05,16,30,27.50
2018,07,05,16,31,27.40
2018,07,05,16,32,27.30
2018,07,05,16,33,27.30
2018,07,05,16,34,27.20
2018,07,05,16,35,27.20
2018,07,05,16,36,27.20
2018,07,05,16,37,27.20
2018,07,05,16,38,27.30
2018,07,05,16,39,27.30
2018,07,05,16,40,27.30
2018,07,05,16,41,27.30
2018,07,05,16,42,27.40
2018,07,05,16,43,27.40
2018,07,05,16,44,27.40
2018,07,05,16,45,27.40
2018,07,05,16,46,27.50
2018,07,05,16,47,27.50
2018,07,05,16,48,27.50
2018,07,05,16,49,27.50
2018,07,05,16,50,27.50
2018,07,05,16,51,27.50
2018,07,05,16,52,27.60
2018,07,05,16,53,27.60
2018,07,05,16,54,27.60
2018,07,05,16,55,27.60
2018,07,05,16,56,27.60
2018,07,05,16,57,27.70
2018,07,05,16,58,27.70
2018,07,05,16,59,27.80
2018,07,05,17,00,27.80
2018,07,05,17,01,27.80
2018,07,05,17,02,27.90
2018,07,05,17,03,27.90
2018,07,05,17,04,27.90
2018,07,05,17,05,27.90
2018,07,05,17,06,27.90
2018,07,05,17,07,28.00
2018,07,05,17,08,28.00
2018,07,05,17,09,28.00
2018,07,05,17,10,28.00
2018,07,05,17,11,28.00
2018,07,05,17,12,27.90
2018,07,05,17,13,27.90
2018,07,05,17,14,27.80
2018,07,05,17,15,27.70
2018,07,05,17,16,27.70
2018,07,05,17,17,27.60
2018,07,05,17,18,27.50
2018,07,05,17,19,27.40